This demonstration page uses our WeatherBlox Daily Observations layout. Learn more.

Left ArrowRight Arrow

38.88101, -77.10428

Hourly Observations for June 6, 2023

Temp ( °F °C ) Dew Point ( °F °C ) Humidity (%) Winds ( mph kmh ) Pressure ( in mb ) Visibility ( mi km ) Precip ( " mm )
12:52 am 00:52 Mostly Cloudy 65 18.3 48 8.9 54 54 W 8 13 29.88 1012 10 16 0.00 0.00
1:52 am 01:52 Mostly Cloudy 65 18.3 46 7.8 50 50 Calm 29.87 1011 10 16 0.00 0.00
2:52 am 02:52 Mostly Cloudy 67 19.4 46 7.8 47 47 Calm 29.86 1011 10 16 0.00 0.00
3:52 am 03:52 Mostly Cloudy 62 16.7 47 8.3 58 58 WSW 6 9 29.85 1011 10 16 0.00 0.00
4:52 am 04:52 Mostly Cloudy 62 16.7 47 8.3 58 58 W 5 7 29.85 1011 10 16 0.00 0.00
5:52 am 05:52 Mostly Cloudy 61 16.1 46 7.8 58 58 W 5 7 29.85 1011 10 16 0.00 0.00
6:52 am 06:52 Mostly Cloudy 64 17.8 46 7.8 52 52 Calm 29.85 1011 10 16 0.00 0.00
7:52 am 07:52 Mostly Cloudy 66 18.9 45 7.2 47 47 NW 6 9 29.85 1011 10 16 0.00 0.00
8:52 am 08:52 Cloudy 69 20.6 45 7.2 42 42 NW 7 11 29.84 1011 8 13 0.00 0.00
9:52 am 09:52 Cloudy with Haze 72 22.2 45 7.2 38 38 NW 9 15 29.83 1010 6 10 0.00 0.00
10:52 am 10:52 Cloudy with Haze 75 23.9 46 7.8 36 36 W 13 20 29.82 1010 6 10 0.00 0.00
11:52 am 11:52 Cloudy with Haze 78 25.6 46 7.8 32 32 NNW 14 22 29.79 1009 6 10 0.00 0.00
12:52 pm 12:52 Cloudy with Haze 79 26.1 47 8.3 32 32 WNW 10 17 29.77 1008 6 10 0.00 0.00
1:52 pm 13:52 Cloudy with Haze 81 27.2 47 8.3 30 30 WNW 12 19 29.74 1007 5 8 0.00 0.00
2:52 pm 14:52 Mostly Cloudy with Haze 81 27.2 49 9.4 33 33 W 12 19 29.72 1006 6 10 0.00 0.00
3:52 pm 15:52 Mostly Cloudy with Haze 83 28.3 47 8.3 28 28 W 16 26 29.70 1006 6 10 0.00 0.00
4:52 pm 16:52 Mostly Cloudy 83 28.3 47 8.3 28 28 W 14 22 29.68 1005 7 11 0.00 0.00
5:52 pm 17:52 Mostly Cloudy 82 27.8 46 7.8 28 28 W 9 15 29.67 1005 7 11 0.00 0.00
6:52 pm 18:52 Mostly Cloudy with Haze 81 27.2 47 8.3 30 30 W 12 19 29.66 1004 6 10 0.00 0.00
7:52 pm 19:52 Mostly Cloudy 80 26.7 47 8.3 31 31 WSW 13 20 29.66 1004 7 11 0.00 0.00
8:52 pm 20:52 Mostly Cloudy 78 25.6 48 8.9 35 35 W 10 17 29.67 1005 8 13 0.00 0.00
9:52 pm 21:52 Mostly Cloudy 76 24.4 49 9.4 39 39 W 9 15 29.68 1005 8 13 0.00 0.00
10:52 pm 22:52 Mostly Cloudy 76 24.4 50 10 40 40 WNW 13 20 29.69 1006 9 14 0.00 0.00
11:52 pm 23:52 Mostly Cloudy 75 23.9 51 10.6 43 43 WNW 12 19 29.70 1006 9 14 0.00 0.00

Powered by Vaisala Xweather